Weather History for KDAY - October, 2013

Change the Weather History Date:

Thursday, October 3, 2013

  Actual Average Record
Temperature  
Mean Temperature 72 °F 58 °F  
Max Temperature 76 °F 69 °F 93 °F (1900)
Min Temperature 67 °F 48 °F 30 °F (1974)
Degree Days  
Heating Degree Days 0 8  
Month to date heating degree days 0 22  
Since 1 July heating degree days 67 112  
Cooling Degree Days 7 1  
Month to date cooling degree days 17 3  
Year to date cooling degree days 1044 884  
Growing Degree Days 20 (Base 50)    
Moisture  
Dew Point 67 °F    
Average Humidity 87    
Maximum Humidity 100    
Minimum Humidity 74    
Precipitation  
Precipitation 0.27 in 0.09 in 1.41 in (1937)
Month to date precipitation 0.27 0.28  
Year to date precipitation 24.88 31.89  
Snow  
Snow 0.00 in 0.00 in - ()
Month to date snowfall 0.0 0.0  
Since 1 July snowfall 0.0 0.0  
Since 1 September snowfall 0.0 0.0  
Snow Depth 0.00 in    
Sea Level Pressure  
Sea Level Pressure 30.07 in    
Wind  
Wind Speed 7 mph (SSW)    
Max Wind Speed 14 mph    
Max Gust Speed 17 mph    
Visibility 5 miles    
Events Rain , Thunderstorm    
T = Trace of Precipitation, MM = Missing Value Source: NWS Daily Summary

Daily Weather History Graph

Daily Weather History Graph

Search for Another Location

Airport or City:

Trip Planner

Search our weather history database for the weather conditions in past years. The results will help you decide how hot, cold, wet, or windy it might be!

Date:

Astronomy

Oct. 03, 2013 Rise Set
Actual Time 7:35 AM EDT 7:15 PM EDT
Civil Twilight 7:08 AM EDT 7:42 PM EDT
Nautical Twilight 6:37 AM EDT 8:13 PM EDT
Astronomical Twilight 6:05 AM EDT 8:45 PM EDT
Moon 6:07 AM EDT (10/3) 6:23 PM EDT (10/3)
Length of Visible Light 12h 34m
Length of Day
11h 40m
Waning Crescent, 2% of the Moon is Illuminated
Oct 3
Waning Crescent
Oct 4
New
Oct 11
First Quarter
Oct 18
Full
Oct 26
Last Quarter

Hourly Weather History & Observations

Time (EDT) Temp. Dew Point Humidity Pressure Visibility Wind Dir Wind Speed Gust Speed Precip Events Conditions
12:56 AM 66.0 °F 64.0 °F 93% 30.07 in 5.0 mi Calm Calm - N/A   Mostly Cloudy
1:56 AM 68.0 °F 66.0 °F 93% 30.06 in 5.0 mi South 4.6 mph - N/A   Mostly Cloudy
2:56 AM 66.9 °F 66.0 °F 97% 30.05 in 4.0 mi South 4.6 mph - N/A   Mostly Cloudy
3:56 AM 68.0 °F 66.0 °F 93% 30.05 in 3.0 mi SSW 5.8 mph - N/A   Clear
4:46 AM 68.0 °F 66.2 °F 94% 30.07 in 3.0 mi SSW 4.6 mph - N/A   Mostly Cloudy
4:56 AM 68.0 °F 66.0 °F 93% 30.05 in 3.0 mi SSW 4.6 mph - N/A   Overcast
5:18 AM 68.0 °F 66.2 °F 94% 30.07 in 3.0 mi SSW 4.6 mph - N/A   Overcast
5:20 AM 68.0 °F 66.2 °F 94% 30.07 in 0.2 mi SSW 3.5 mph - N/A   Overcast
5:37 AM 68.0 °F 66.2 °F 94% 30.07 in 2.0 mi South 5.8 mph - N/A   Overcast
5:49 AM 68.0 °F 66.2 °F 94% 30.07 in 3.0 mi South 4.6 mph - N/A   Overcast
5:56 AM 69.1 °F 66.9 °F 93% 30.06 in 3.0 mi SSW 4.6 mph - N/A   Overcast
6:15 AM 68.0 °F 66.2 °F 94% 30.08 in 1.0 mi SSW 4.6 mph - N/A   Overcast
6:30 AM 68.0 °F 66.2 °F 94% 30.09 in 0.5 mi SSW 8.1 mph - 0.00 in Rain Light Rain
6:56 AM 68.0 °F 66.9 °F 96% 30.07 in 0.5 mi SSW 6.9 mph - 0.00 in Rain Light Rain
7:46 AM 68.0 °F 66.2 °F 94% 30.10 in 1.0 mi WSW 9.2 mph - 0.02 in Rain Light Rain
7:56 AM 68.0 °F 66.9 °F 96% 30.08 in 1.5 mi SW 8.1 mph - 0.04 in Rain Light Rain
8:09 AM 68.0 °F 66.2 °F 94% 30.10 in 1.5 mi SW 8.1 mph - 0.00 in Rain Light Rain
8:21 AM 68.0 °F 66.2 °F 94% 30.10 in 2.0 mi WSW 6.9 mph - 0.00 in   Overcast
8:56 AM 68.0 °F 66.9 °F 96% 30.09 in 2.5 mi SW 8.1 mph - 0.04 in Rain Rain
9:48 AM 68.0 °F 66.2 °F 94% 30.11 in 4.0 mi SSW 4.6 mph - 0.12 in Rain Light Rain
9:56 AM 68.0 °F 66.0 °F 93% 30.10 in 5.0 mi SSW 5.8 mph - 0.12 in Rain Light Rain
10:34 AM 69.8 °F 68.0 °F 94% 30.11 in 6.0 mi Calm Calm - N/A   Mostly Cloudy
10:56 AM 70.0 °F 66.9 °F 90% 30.10 in 7.0 mi SSE 5.8 mph - N/A   Mostly Cloudy
11:20 AM 71.6 °F 68.0 °F 88% 30.10 in 10.0 mi South 6.9 mph - N/A   Mostly Cloudy
11:56 AM 72.0 °F 68.0 °F 87% 30.08 in 10.0 mi SSW 5.8 mph - N/A   Mostly Cloudy
12:56 PM 71.1 °F 68.0 °F 90% 30.09 in 4.0 mi SSW 8.1 mph - 0.02 in Rain Light Rain
1:41 PM 71.6 °F 69.8 °F 94% 30.10 in 4.0 mi South 9.2 mph - 0.02 in Rain Light Rain
1:56 PM 70.0 °F 68.0 °F 93% 30.08 in 4.0 mi South 9.2 mph - 0.03 in Rain Light Rain
2:08 PM 69.8 °F 66.2 °F 88% 30.08 in 5.0 mi South 9.2 mph - 0.02 in Rain , Thunderstorm Light Thunderstorms and Rain
2:56 PM 69.1 °F 66.0 °F 90% 30.06 in 10.0 mi South 11.5 mph - 0.02 in   Mostly Cloudy
3:56 PM 72.0 °F 66.9 °F 84% 30.04 in 6.0 mi SSW 5.8 mph - 0.00 in Rain Light Rain
4:56 PM 73.0 °F 68.0 °F 84% 30.02 in 10.0 mi South 6.9 mph - 0.00 in   Mostly Cloudy
5:56 PM 75.0 °F 66.9 °F 76% 30.01 in 10.0 mi South 10.4 mph - N/A   Mostly Cloudy
6:56 PM 73.0 °F 66.9 °F 81% 30.02 in 10.0 mi South 8.1 mph - N/A   Scattered Clouds
7:56 PM 71.1 °F 66.9 °F 87% 30.01 in 10.0 mi SSE 5.8 mph - N/A   Mostly Cloudy
8:56 PM 71.1 °F 66.9 °F 87% 30.03 in 10.0 mi South 6.9 mph - N/A   Mostly Cloudy
9:56 PM 72.0 °F 66.9 °F 84% 30.04 in 10.0 mi South 10.4 mph - N/A   Scattered Clouds
10:56 PM 70.0 °F 66.9 °F 90% 30.05 in 10.0 mi South 11.5 mph - N/A   Mostly Cloudy